This demonstration page uses our WeatherBlox Daily Observations layout. Learn more.

39.92423, -83.80882

Hourly Observations for May 12, 2015

Temp ( °F °C ) Dew Point ( °F °C ) Humidity (%) Winds ( mph kmh ) Pressure ( in mb ) Visibility ( mi km ) Precip ( " mm )
12:56 am 00:56 Clear 63 17.2 61 16.1 93 93 SSW 7 11 29.96 1015 7 11.26538 0 0
1:56 am 01:56 Mostly Clear 64 17.7 62 16.6 93 93 SSW 9 15 29.96 1015 7 11.26538 0 0
2:56 am 02:56 Mostly Clear with Mist and Fog 63 17.2 62 16.6 96 96 SW 12 19 29.96 1015 6 9.65604 0 0
3:56 am 03:56 Clear 63 17.2 60 15.5 90 90 WSW 12 19 29.97 1015 7 11.26538 0 0
4:37 am 04:37 Mostly Cloudy with Haze 63 17 55 13 77 77 WNW 13 20 30 1016 6 9.65604 0 0
4:56 am 04:56 Cloudy with Haze 61 16.1 54 12.2 78 78 WNW 14 22 29.99 1016 6 9.65604 0 0
5:13 am 05:13 Hazy 61 16 52 11 72 72 W 14 22 30.03 1017 6 9.65604 0 0
5:56 am 05:56 Hazy 57 13.8 50 10 78 78 W 14 22 30.01 1016 6 9.65604 0 0
6:56 am 06:56 Hazy 55 12.7 49 9.4 81 81 W 8 13 30.04 1017 5 8.0467 0 0
7:56 am 07:56 Hazy 57 13.8 48 8.8 72 72 WSW 14 22 30.05 1018 6 9.65604 0 0
8:56 am 08:56 Hazy 59 15 47 8.3 64 64 W 18 30 30.07 1018 5 8.0467 0 0
9:56 am 09:56 Hazy 60 15.5 46 7.7 60 60 WSW 20 31 30.08 1019 6 9.65604 0 0
10:56 am 10:56 Hazy 61 16.1 46 7.7 58 58 W 16 26 30.08 1019 6 9.65604 0 0
11:56 am 11:56 Hazy 63 17.2 46 7.7 54 54 W 20 31 30.08 1019 5 8.0467 0 0
12:56 pm 12:56 Hazy 64 17.7 46 7.7 52 52 W 20 31 30.09 1019 6 9.65604 0 0
1:56 pm 13:56 Hazy 65 18.3 46 7.7 50 50 W 25 41 30.09 1019 6 9.65604 0 0
2:56 pm 14:56 Hazy 66 18.8 46 7.7 49 49 W 20 31 30.1 1019 6 9.65604 0 0
3:56 pm 15:56 Mostly Cloudy with Haze 65 18.3 46 7.7 50 50 W 21 33 30.11 1020 6 9.65604 0 0
4:56 pm 16:56 Mostly Cloudy with Haze 64 17.7 45 7.2 50 50 W 20 31 30.12 1020 6 9.65604 0 0
5:56 pm 17:56 Cloudy with Haze 62 16.6 44 6.6 52 52 W 15 24 30.14 1021 5 8.0467 0 0
6:56 pm 18:56 Mostly Cloudy with Haze 61 16.1 44 6.6 54 54 WNW 17 28 30.17 1022 5 8.0467 0 0
7:56 pm 19:56 Mostly Cloudy with Haze 58 14.4 44 6.6 60 60 WNW 16 26 30.19 1022 6 9.65604 0 0
8:56 pm 20:56 Hazy 54 12.2 43 6.1 67 67 NW 13 20 30.22 1023 6 9.65604 0 0
9:56 pm 21:56 Mostly Clear 52 11.1 43 6.1 72 72 NW 9 15 30.25 1024 7 11.26538 0 0
10:56 pm 22:56 Cloudy 53 11.6 44 6.6 72 72 NW 5 7 30.26 1025 7 11.26538 0 0
11:56 pm 23:56 Mostly Cloudy 52 11.1 44 6.6 74 74 WNW 7 11 30.25 1025 7 11.26538 0 0

Powered by AerisWeather